Wilmington, NC

7:35 PM EDT on May 23, 2018 (GMT -0400)
Wilmington International

Weather History for KILM - February, 2012

Change the Weather History Date:

Wednesday, February 8, 2012

  Actual Average Record
Temperature  
Mean Temperature 48 °F 48 °F  
Max Temperature 60 °F 59 °F 77 °F (1932)
Min Temperature 36 °F 37 °F 10 °F (1895)
Degree Days  
Heating Degree Days 17 17  
Month to date heating degree days 94 141  
Since 1 July heating degree days 1256 1616  
Cooling Degree Days 0 0  
Month to date cooling degree days 0 0  
Year to date cooling degree days 0 2  
Moisture  
Dew Point 37 °F    
Average Humidity 70    
Maximum Humidity 100    
Minimum Humidity 40    
Precipitation  
Precipitation T in 0.12 in 1.54 in (1896)
Month to date precipitation 0.23 1.01  
Year to date precipitation 2.00 4.77  
Snow  
Snow 0.00 in 0.00 in T in (1899)
Month to date snowfall 0.0 0.1  
Since 1 July snowfall T 1.3  
Snow Depth 0.00 in    
Sea Level Pressure  
Sea Level Pressure 30.12 in    
Wind  
Wind Speed 5 mph (North)    
Max Wind Speed 20 mph    
Max Gust Speed 23 mph    
Visibility 9 miles    
Events      
T = Trace of Precipitation, MM = Missing Value Source: NWS Daily Summary

Daily Weather History Graph

Daily Weather History Graph

Search for Another Location

Airport or City:

Astronomy

Feb. 08, 2012 Rise Set
Actual Time 7:03 AM EST 5:48 PM EST
Civil Twilight 6:37 AM EST 6:14 PM EST
Nautical Twilight 6:08 AM EST 6:43 PM EST
Astronomical Twilight 5:38 AM EST 7:13 PM EST
Moon 6:59 PM EST (2/8) 7:10 AM EST (2/8)
Length of Visible Light 11h 36m
Length of Day
10h 44m
Full, 99% of the Moon is Illuminated
Feb 8
Full
Feb 14
Last Quarter
Feb 21
New
Feb 29
First Quarter
Mar 8
Full

Hourly Weather History & Observations

Time (EST) Temp. Windchill Dew Point Humidity Pressure Visibility Wind Dir Wind Speed Gust Speed Precip Events Conditions
12:53 AM 39.9 °F - 37.9 °F 93% 30.17 in 10.0 mi Calm Calm - N/A   Clear
1:53 AM 37.9 °F - 36.0 °F 93% 30.15 in 9.0 mi Calm Calm - N/A   Clear
2:53 AM 37.0 °F - 34.0 °F 89% 30.15 in 10.0 mi Calm Calm - N/A   Clear
3:53 AM 36.0 °F 33.3 °F 35.1 °F 97% 30.15 in 9.0 mi NNE 3.5 mph - N/A   Clear
4:53 AM 37.0 °F 33.3 °F 36.0 °F 96% 30.13 in 8.0 mi NNE 4.6 mph - N/A   Clear
5:53 AM 37.0 °F 34.5 °F 35.1 °F 93% 30.13 in 4.0 mi NNE 3.5 mph - N/A   Clear
6:53 AM 37.0 °F 33.3 °F 35.1 °F 93% 30.13 in 7.0 mi North 4.6 mph - N/A   Clear
7:53 AM 41.0 °F 37.1 °F 36.0 °F 82% 30.14 in 9.0 mi NE 5.8 mph - N/A   Clear
8:53 AM 45.0 °F 41.2 °F 39.0 °F 80% 30.14 in 10.0 mi NE 6.9 mph - N/A   Clear
9:53 AM 51.1 °F - 39.9 °F 66% 30.15 in 10.0 mi NE 3.5 mph - N/A   Clear
10:53 AM 55.4 °F - 39.2 °F 54% 30.13 in 10.0 mi NE 3.5 mph - N/A   Clear
11:53 AM 57.9 °F - 37.9 °F 47% 30.10 in 10.0 mi NW 3.5 mph - N/A   Clear
12:53 PM 59.0 °F - 36.0 °F 42% 30.08 in 10.0 mi NW 9.2 mph - N/A   Partly Cloudy
1:53 PM 60.1 °F - 37.0 °F 42% 30.07 in 10.0 mi NW 10.4 mph 19.6 mph N/A   Partly Cloudy
2:53 PM 59.0 °F - 35.1 °F 41% 30.06 in 10.0 mi NW 17.3 mph - N/A   Scattered Clouds
3:53 PM 53.1 °F - 37.0 °F 55% 30.06 in 10.0 mi NNW 12.7 mph - 0.00 in   Overcast
4:53 PM 51.1 °F - 39.9 °F 66% 30.07 in 10.0 mi North 5.8 mph - 0.00 in   Overcast
5:53 PM 50.0 °F - 39.0 °F 66% 30.07 in 10.0 mi NNW 8.1 mph - N/A   Partly Cloudy
6:53 PM 46.9 °F - 39.0 °F 74% 30.10 in 10.0 mi NNW 4.6 mph - N/A   Clear
7:53 PM 43.0 °F - 37.9 °F 82% 30.11 in 10.0 mi Calm Calm - N/A   Clear
8:53 PM 41.0 °F 39.0 °F 37.0 °F 86% 30.13 in 10.0 mi North 3.5 mph - N/A   Clear
9:53 PM 41.0 °F 39.0 °F 36.0 °F 82% 30.15 in 10.0 mi North 3.5 mph - N/A   Clear
10:53 PM 39.0 °F - 36.0 °F 89% 30.16 in 8.0 mi Calm Calm - N/A   Clear
11:53 PM 36.0 °F - 33.1 °F 89% 30.16 in 9.0 mi Calm Calm - N/A   Clear